Other Public Products
Issued by NWS Grand Forks, ND

Home | Current Version | Previous Version | Text Only | Print | Product List | Glossary On
Versions: 1 2 3 4 5 6 7 8 9 10 11 12 13 14 15 16 17 18 19 20 21 22 23 24 25 26 27 28 29 30 31 32 33 34 35 36 37 38 39 40 41 42 43 44 45 46 47 48 49 50
000
FPUS83 KFGF 050131
OPUFGF
PRAIRIE TO PINES WEATHER ROUNDUP
NATIONAL WEATHER SERVICE EASTERN NORTH DAKOTA/GRAND FORKS ND
800 PM CDT MON MAY 04 2015

 **SATELLITE DATA USED TO AUGMENT SKY COVER AT AUTOMATED STATIONS**
 *****  WEATHER ACROSS EASTERN NORTH DAKOTA  *****

CITY           SKY/WX    TMP DP  RH WIND       PRES   REMARKS
GRAND FORKS    CLEAR     67  25  20 CALM      30.15S
GRAND FORKS AF CLEAR     67  25  20 S3        30.15S
GRAND CITY NWS   N/A     61 N/A N/A E2          N/A
BUXTON           N/A     67  24  20 CALM        N/A
DEVILS LAKE    CLEAR     63  30  29 SE6       30.13S
FARGO          CLEAR     64  30  27 S7        30.16S
WAHPETON ARPT  PTCLDY    63  19  19 NE5       30.17F
$$

 *****  WEATHER ACROSS CENTRAL AND WESTERN NORTH DAKOTA  *****

CITY           SKY/WX    TMP DP  RH WIND       PRES   REMARKS
JAMESTOWN      CLEAR     63  25  23 S5        30.15S
BISMARCK       CLEAR     65  25  22 S10       30.12F
MINOT          CLEAR     67  26  21 S17G24    30.06F
MINOT AFB      CLEAR     70  28  20 S14       30.05F
GARRISON         N/A     63  30  28 S12       30.08F
WILLISTON      SUNNY     66  40  38 S18G28    30.01S
DICKINSON      CLEAR     56  33  42 S18G26    30.07F
HETTINGER      CLOUDY    51  34  52 SE12      30.12F
$$

 *****  OTHER OBSERVATIONS NORTHEAST NORTH DAKOTA  *****

CITY           SKY/WX    TMP DP  RH WIND       PRES   REMARKS
WALHALLA       FAIR      64  27  24 N3        30.13S
LANGDON        FAIR      63  25  23 S6        30.14S
CAVALIER       FAIR      66  27  22 CALM      30.13S HAZE
GRAFTON        FAIR      63  28  27 SW7       30.15S
CANDO          FAIR      63  25  23 SE8       30.13S
FORT TOTTEN    NOT AVBL
ROLLA          NOT AVBL
RUGBY          NOT AVBL
 ***** THE ABOVE OBSERVATIONS ARE NON NWS ARE NOT QUALITY
        CONTROLLED AND MAY MIS-REPORT RAIN FOR SNOW...
$$

 *****  OTHER OBSERVATIONS SOUTHEAST NORTH DAKOTA *****

CITY           SKY/WX    TMP DP  RH WIND       PRES   REMARKS
COOPERSTOWN    NOT AVBL
VALLEY CITY    FAIR      59  28  31 S7        30.16S
OAKES            N/A     59  28  31 E8        30.15F
GWINNER        CLEAR     66  30  26 E7        30.17S
SHEYENNE NWR     N/A     65  29  26 E5        29.95S
BUFFALO        NOT AVBL
WYNDMERE       NOT AVBL
 ***** THE ABOVE OBSERVATIONS ARE NON NWS ARE NOT QUALITY
       CONTROLLED AND MAY MIS-REPORT RAIN FOR SNOW...
$$

  *****  WEATHER ACROSS NORTHERN MINNESOTA  *****

CITY           SKY/WX    TMP DP  RH WIND       PRES   REMARKS
FLAG ISLAND    CLEAR     55  34  44 SE3       30.16R
WARROAD        CLEAR     61  32  33 CALM      30.17S
ROSEAU         PTCLDY    63  28  27 CALM      30.16S
HALLOCK        CLEAR     66  18  15 CALM      30.14R
THF RVR FALLS  CLEAR     63  25  23 SW5       30.18S
HALSTAD          N/A     64  18  16 NE3         N/A
FOSSTON        CLEAR     61  21  21 CALM      30.18S
BAUDETTE       PTCLDY    61  25  25 W6        30.17S
WASKISH        CLEAR     59  28  31 CALM      30.19R
CROOKSTON      CLEAR     66  25  20 CALM      30.17S
$$
  *****  WEATHER ACROSS CENTRAL AND WEST MINNESOTA  *****

CITY           SKY/WX    TMP DP  RH WIND       PRES   REMARKS
BEMIDJI        CLEAR     59  25  27 CALM      30.18S
PARK RAPIDS    CLEAR     61  30  31 SW6       30.18S
WADENA         PTCLDY    61  30  31 CALM      30.19S
DETROIT LAKES  CLEAR     61  30  31 S3        30.20S
MOORHEAD       CLEAR     64  25  22 S6        30.17S
FERGUS FALLS   PTCLDY    63  30  29 E5        30.19R
ELBOW LAKE     FAIR      62  28  27 E6        30.18S
MORRIS MN      PTCLDY    61  30  31 E3        30.16F
STAPLES        PTCLDY    61  27  27 CALM      30.19S
WHEATON        PTCLDY    64  30  27 NE8       30.17S
$$
  *****  WEATHER ELSEWHERE ACROSS MINNESOTA  *****

CITY           SKY/WX    TMP DP  RH WIND       PRES   REMARKS
DULUTH         PTCLDY    62  17  17 W6        30.19R
INTRNTL FALLS  PTCLDY    59  27  29 SW5       30.18S
ELY            CLEAR     57  25  28 CALM      30.21R
CLOQUET        PTCLDY    55  18  22 CALM      30.20R
BRAINERD       PTCLDY    60  21  22 NE5       30.20F
HIBBING        CLEAR     59  23  25 CALM      30.19R
ALEXANDRIA     PTCLDY    61  30  31 E7        30.19S
SAINT CLOUD    PTCLDY    63  26  24 NE5       30.19R
MINNEAPOLIS    MOCLDY    69  26  20 NE7       30.16S
$$

  *****  WEATHER ACROSS SOUTH DAKOTA  *****

CITY           SKY/WX    TMP DP  RH WIND       PRES   REMARKS
SIOUX FALLS    CLOUDY    66  30  26 E10       30.11F
BROOKINGS      MOCLDY    66  27  22 NE7       30.13F
WATERTOWN      MOCLDY    66  25  21 E7        30.15F
HURON          MOCLDY    68  27  21 E6        30.10F
SISSETON         N/A     68  25  19 SE6       30.14F
ABERDEEN       CLOUDY    65  28  24 E6        30.14F
MITCHELL       MOCLDY    70  29  21 SE8       30.09F
PIERRE         CLOUDY    65  25  22 E10       30.09F
MOBRIDGE       CLOUDY    63  27  25 SE8       30.11F
RAPID CITY     CLOUDY    55  36  48 S16G24    30.10F
$$

  *****  SOME WEATHER IN NEARBY STATES *****

CITY           SKY/WX    TMP DP  RH WIND       PRES   REMARKS
GLASGOW MT     SUNNY     70  40  33 SE25      29.86F
GREAT FALLS MT SUNNY     74  12   9 W13       29.78S
CHEYENNE WY    CLOUDY    52  43  71 SE13      30.08F
SCOTTSBLUFF NE PTCLDY    58  37  45 SE14      30.08S
OMAHA NE       LGT RAIN  60  57  89 N9        30.06S
DES MOINES IA  LGT RAIN  66  61  84 NE10      30.08R
DAVENPORT IA   CLOUDY    70  59  68 E12       30.07F
CHICAGO IL     MOCLDY    57  47  69 NE8       30.17R
EAU CLAIRE WI  CLOUDY    64  33  31 CALM      30.16S
LA CROSSE WI   CLOUDY    66  42  41 N9        30.12F
$$

  *****  SOME NATIONAL WEATHER *****

CITY           SKY/WX    TMP DP  RH WIND       PRES   REMARKS
LA GUARDIA NY  PTCLDY    74  44  34 S13       30.14R
RALEIGH NC     PTCLDY    71  52  50 S6        30.27R
ATLANTA GA     PTCLDY    73  51  46 S6        30.26R
NEW ORLEANS LA MOCLDY    75  63  66 SE15G22   30.14R
OKLAHOMA CITY  MOCLDY    74  56  53 S12       29.98S
ALBUQUERQUE NM CLOUDY    58  47  66 E17       29.96R
SALT LAKE CITY PTSUNNY   70  38  31 VRB5      29.83F
LOS ANGELES CA MOSUNNY   60  50  69 W14       29.93F
BOISE ID       MOSUNNY   81  35  19 W9        29.72F
SEATTLE WA     MOSUNNY   57  44  62 SW16G22   29.96R
$$

*** WEATHER ACROSS MANITOBA...SASKATCHEWAN AND ONTARIO ***
                ***ONTARIO***

CITY           SKY/WX    TMP DP  RH WIND       PRES   REMARKS
GERALDTON      CLEAR     52  27  37 W7        30.13S
THUNDER BAY    PTCLDY    59  25  27 NW5       30.18R
SIOUX LOOKOUT  PTCLDY    54  32  43 W6        30.17R
TORONTO        MOCLDY    63  54  72 W8        30.12R
BIG TROUT LK   PTCLDY    39  28  65 NW12G18   30.05R
PICKLE LAKE    PTCLDY    50  30  46 W10G20    30.08R
DRYDEN         PTCLDY    55  32  41 W7        30.18R
KENORA         PTCLDY    55  34  44 SW3       30.18R
$$
                *** MANITOBA***

CITY           SKY/WX    TMP DP  RH WIND       PRES   REMARKS
BRANDON        PTCLDY    64  30  27 SW5       30.10F
DAUPHIN        CLEAR     64  28  25 W3        30.08F
ISLAND LAKE    PTCLDY    43  23  45 NW7       30.09S
PILOT MOUND      N/A     64  25  22 CALM        N/A
THE PAS        MOSUNNY   48  25  40 N5        30.12F
THOMPSON       PTCLDY    41  18  38 NW10G18   30.10R
WINNIPEG       CLEAR     63  27  25 NE3       30.14S
LYNN LAKE      SUNNY     37  14  38 NW13G20   30.12R
CHURCHILL      FLURRIES  25  18  74 NW23G36   29.98R WCI  10
GILLAM         MOCLDY    34  23  64 W13G20    30.07R WCI  25
$$
                ***SASKATCHEWAN***

CITY           SKY/WX    TMP DP  RH WIND       PRES   REMARKS
ESTEVAN        MOSUNNY   68  34  28 S15G22    30.00F
KINDERSLEY     PTSUNNY   70  32  24 SE15      29.78F
LLOYDMINSTER   PTSUNNY   57  27  30 E22G30    29.90F
PRINCE ALBERT  PTSUNNY   55  32  41 NE13G21   30.03F
REGINA         MOSUNNY   66  32  28 SE13      29.94F



USA.gov is the U.S. government's official web portal to all federal, state and local government web resources and services.